Location: Anjeux
(47.8815°N, 6.2076°E)
Time: 04:09:01
(UTC+00:00)

NUDT-PHONESAT - Visible Passes

Search period start: 05 December 2021 00:00
Search period end: 15 December 2021 00:00
Orbit: 474 x 487 km, 97.4° (Epoch: 04 December)

Date Brightness Start Highest point End Pass type
(mag) Time Alt. Az. Time Alt. Az. Time Alt. Az.
05 Dec ? 06:12:14 10° NNE 06:15:43 44° E 06:19:09 10° S visible
05 Dec ? 16:50:57 10° SE 16:54:07 30° ENE 16:57:19 10° N visible
05 Dec ? 18:24:41 10° SW 18:27:30 21° W 18:30:22 10° NW visible
06 Dec ? 05:47:05 10° NE 05:50:00 22° E 05:52:52 10° SSE visible
06 Dec ? 16:26:22 10° ESE 16:28:43 17° ENE 16:31:05 10° NNE visible
06 Dec ? 17:58:21 10° S 18:01:47 41° W 18:05:14 10° NNW visible
07 Dec ? 05:22:44 10° ENE 05:24:10 12° E 05:25:35 10° ESE visible
07 Dec ? 17:32:32 10° SSE 17:36:07 87° WSW 17:39:46 10° NNW visible
08 Dec ? 06:28:40 10° NNE 06:32:17 71° ESE 06:35:51 10° S visible
08 Dec ? 17:07:05 10° SE 17:10:33 45° ENE 17:14:01 10° N visible
08 Dec ? 18:42:07 10° SW 18:44:09 14° W 18:46:12 10° NW visible
09 Dec ? 06:03:15 10° NNE 06:06:35 34° E 06:09:51 10° SSE visible
09 Dec ? 16:42:06 10° ESE 16:45:02 24° ENE 16:48:00 10° NNE visible
09 Dec ? 18:15:12 10° SSW 18:18:19 27° W 18:21:26 10° NW visible
10 Dec ? 05:38:14 10° NE 05:40:45 18° E 05:43:15 10° SE visible
10 Dec ? 16:17:46 10° E 16:19:37 14° ENE 16:21:27 10° NNE visible
10 Dec ? 17:49:01 10° S 17:52:33 54° W 17:56:07 10° NNW visible
11 Dec ? 17:23:17 10° SSE 17:26:53 72° ENE 17:30:29 10° N visible
12 Dec ? 06:19:26 10° NNE 06:22:58 53° E 06:26:28 10° S visible
12 Dec ? 16:57:57 10° SE 17:01:16 35° ENE 17:04:36 10° N visible
12 Dec ? 18:32:11 10° SW 18:34:44 18° W 18:37:19 10° NW visible
13 Dec ? 05:54:04 10° NE 05:57:10 26° E 06:00:13 10° SSE visible
13 Dec ? 16:33:07 10° ESE 16:35:44 19° ENE 16:38:22 10° NNE visible
13 Dec ? 18:05:34 10° SSW 18:08:53 34° W 18:12:13 10° NNW visible
14 Dec ? 05:29:16 10° ENE 05:31:14 14° E 05:33:12 10° SE visible
14 Dec ? 17:39:30 10° S 17:43:05 72° WSW 17:46:43 10° NNW visible
